This is the latest recevied weather packets stored in our database for station/object IW2NIA-3. If no packets are shown the sender has not sent any weather packets the latest 10 day(s).
| Time | Temp. | Humidity | Pressure | Rain* | Wind** | Luminosity | Snow |
|---|---|---|---|---|---|---|---|
| 1788000513 | 27.22° C | 65% | 1013.7 hPa | 0 mm | - | - | - |
| 1787999609 | 27.22° C | 70% | 1013.7 hPa | 0 mm | - | - | - |
| 1787998710 | 26.11° C | 69% | 1013.8 hPa | 0 mm | - | - | - |
| 1787997825 | 26.11° C | 71% | 1013.9 hPa | 0 mm | - | - | - |
| 1787996914 | 26.11° C | 71% | 1013.8 hPa | 0 mm | - | - | - |
| 1787996027 | 25.56° C | 72% | 1013.7 hPa | 0 mm | - | - | - |
| 1787995107 | 25.56° C | 75% | 1013.9 hPa | 0 mm | - | - | - |
| 1787994226 | 25° C | 75% | 1013.9 hPa | 0 mm | - | - | - |
| 1787993314 | 25° C | 77% | 1013.9 hPa | 0 mm | - | - | - |
| 1787992412 | 24.44° C | 77% | 1013.7 hPa | 0 mm | - | - | - |
| 1787991508 | 24.44° C | 77% | 1013.6 hPa | 0 mm | - | - | - |
| 1787990624 | 24.44° C | 79% | 1013.6 hPa | 0 mm | - | - | - |
| 1787989723 | 23.89° C | 78% | 1013.5 hPa | 0 mm | - | - | - |
| 1787988809 | 23.89° C | 80% | 1013.6 hPa | 0 mm | - | - | - |
| 1787987909 | 23.33° C | 80% | 1013.4 hPa | 0 mm | - | - | - |
| 1787987014 | 23.33° C | 79% | 1013.4 hPa | 0 mm | - | - | - |
| 1787986111 | 23.33° C | 81% | 1013.4 hPa | 0 mm | - | - | - |
| 1787985224 | 22.78° C | 85% | 1013.4 hPa | 0 mm | - | - | - |
| 1787984321 | 21.67° C | 87% | 1013.4 hPa | 0 mm | - | - | - |
| 1787983415 | 21.11° C | 88% | 1013.2 hPa | 0 mm | - | - | - |
| 1787982513 | 20.56° C | 88% | 1013.1 hPa | 0 mm | - | - | - |
| 1787981613 | 20° C | 89% | 1012.9 hPa | 0 mm | - | - | - |
| 1787980727 | 20° C | 90% | 1012.8 hPa | 0 mm | - | - | - |
| 1787979823 | 20° C | 90% | 1012.7 hPa | 0 mm | - | - | - |
| 1787978918 | 20° C | 90% | 1012.6 hPa | 0 mm | - | - | - |
* Rain latest hour (hover to see other rain measurements)
** Current wind speed in m/s (hover to see current wind gust speed)